When you browse on this site, cookies collect data to enhance your experience and personalize the content and advertising you see.
Visit our Privacy Policy to learn more. By continuing to use the site, you agree to this use of cookies and data.
  • In Hungary
  • List of Countries
  • For 7 days
  • Water Temperature
  • Satellite Maps
  • Weather Map
  • News
  • Weather Widgets
  • user-avatar
    Login

    Hourly Weather Pokrovka

    Today, 20 November, Tuesday

    Time Temperature Precipitation Wind Pressure Humidity
    00:00 -2°C° 0.1 mm 3 mps 756 mmHg 94%
    01:00 -2°C° 0 mm 3 mps 756 mmHg 93%
    02:00 -2°C° 0 mm 3 mps 756 mmHg 92%
    03:00 -2°C° 0 mm 3 mps 756 mmHg 93%
    04:00 -4°C° 0 mm 3 mps 755 mmHg 92%
    05:00 -4°C° 0 mm 3 mps 755 mmHg 91%
    06:00 -4°C° 0 mm 3 mps 755 mmHg 90%
    07:00 -4°C° 0 mm 3 mps 755 mmHg 89%
    08:00 -5°C° 0 mm 3 mps 755 mmHg 89%
    09:00 -5°C° 0 mm 3 mps 755 mmHg 86%
    10:00 -4°C° 0 mm 3 mps 755 mmHg 84%
    11:00 -4°C° 0 mm 3 mps 754 mmHg 81%
    12:00 -3°C° 0 mm 2 mps 754 mmHg 78%
    13:00 -3°C° 0 mm 2 mps 754 mmHg 78%
    14:00 -3°C° 0 mm 2 mps 753 mmHg 77%
    15:00 -4°C° 0 mm 3 mps 753 mmHg 76%
    16:00 -4°C° 0 mm 3 mps 753 mmHg 77%
    17:00 -4°C° 0 mm 3 mps 752 mmHg 77%
    18:00 -4°C° 0 mm 3 mps 752 mmHg 77%
    19:00 -4°C° 0 mm 4 mps 751 mmHg 78%
    20:00 -4°C° 0 mm 4 mps 751 mmHg 78%
    21:00 -4°C° 0 mm 4 mps 750 mmHg 78%
    22:00 -5°C° 0 mm 4 mps 750 mmHg 78%
    23:00 -6°C° 0 mm 5 mps 749 mmHg 78%

    Tomorrow, 21 November, Wednesday

    Time Temperature Precipitation Wind Pressure Humidity
    00:00 -6°C° 0 mm 5 mps 748 mmHg 79%
    01:00 -6°C° 0 mm 5 mps 748 mmHg 77%
    02:00 -6°C° 0 mm 5 mps 747 mmHg 76%
    03:00 -6°C° 0 mm 6 mps 746 mmHg 75%
    04:00 -6°C° 0 mm 6 mps 746 mmHg 75%
    05:00 -6°C° 0 mm 6 mps 745 mmHg 76%
    06:00 -6°C° 0 mm 6 mps 745 mmHg 76%
    07:00 -5°C° 0.1 mm 6 mps 744 mmHg 78%
    08:00 -5°C° 0.1 mm 6 mps 744 mmHg 80%
    09:00 -5°C° 0.1 mm 6 mps 743 mmHg 82%
    10:00 -4°C° 0.1 mm 6 mps 743 mmHg 80%
    11:00 -4°C° 0.1 mm 7 mps 743 mmHg 79%
    12:00 -3°C° 0.1 mm 7 mps 743 mmHg 77%
    13:00 -4°C° 0 mm 6 mps 743 mmHg 72%
    14:00 -5°C° 0 mm 6 mps 744 mmHg 66%
    15:00 -5°C° 0 mm 6 mps 744 mmHg 61%
    16:00 -6°C° 0 mm 6 mps 744 mmHg 63%
    17:00 -6°C° 0 mm 6 mps 744 mmHg 65%
    18:00 -8°C° 0 mm 6 mps 745 mmHg 67%
    19:00 -8°C° 0 mm 6 mps 745 mmHg 69%
    20:00 -8°C° 0 mm 6 mps 745 mmHg 70%
    21:00 -9°C° 0 mm 6 mps 745 mmHg 72%
    22:00 -9°C° 0 mm 6 mps 745 mmHg 74%
    23:00 -8°C° 0 mm 5 mps 745 mmHg 75%

    Day after tomorrow, 22 November, Thursday

    Time Temperature Precipitation Wind Pressure Humidity
    00:00 -8°C° 0 mm 5 mps 744 mmHg 77%
    01:00 -8°C° 0 mm 5 mps 744 mmHg 78%
    02:00 -8°C° 0 mm 5 mps 744 mmHg 79%
    03:00 -8°C° 0 mm 5 mps 744 mmHg 80%
    04:00 -8°C° 0 mm 5 mps 744 mmHg 82%
    05:00 -8°C° 0 mm 4 mps 744 mmHg 84%
    06:00 -8°C° 0 mm 4 mps 743 mmHg 87%
    07:00 -8°C° 0 mm 4 mps 743 mmHg 86%
    08:00 -8°C° 0 mm 4 mps 743 mmHg 86%
    09:00 -7°C° 0 mm 4 mps 742 mmHg 85%
    10:00 -7°C° 0.1 mm 5 mps 742 mmHg 84%
    11:00 -8°C° 0.1 mm 6 mps 741 mmHg 83%
    12:00 -7°C° 0.1 mm 7 mps 740 mmHg 82%
    13:00 -7°C° 0.4 mm 7 mps 739 mmHg 82%
    14:00 -7°C° 0.4 mm 8 mps 738 mmHg 83%
    15:00 -7°C° 0.4 mm 8 mps 737 mmHg 84%
    16:00 -7°C° 0.2 mm 8 mps 737 mmHg 84%
    17:00 -7°C° 0.2 mm 8 mps 736 mmHg 83%
    18:00 -7°C° 0.2 mm 7 mps 736 mmHg 82%
    19:00 -7°C° 0.2 mm 7 mps 735 mmHg 85%
    20:00 -6°C° 0.2 mm 6 mps 734 mmHg 88%
    21:00 -6°C° 0.2 mm 5 mps 734 mmHg 91%
    22:00 -6°C° 0.7 mm 5 mps 733 mmHg 91%
    23:00 -6°C° 0.7 mm 5 mps 732 mmHg 91%

    23 November, Friday

    Time Temperature Precipitation Wind Pressure Humidity
    00:00 -5°C° 0.7 mm 5 mps 732 mmHg 92%
    01:00 -6°C° 0.9 mm 6 mps 732 mmHg 91%
    02:00 -8°C° 0.9 mm 8 mps 732 mmHg 90%
    03:00 -10°C° 0.9 mm 9 mps 732 mmHg 90%
    04:00 -10°C° 0.5 mm 9 mps 733 mmHg 88%
    05:00 -11°C° 0.5 mm 9 mps 734 mmHg 86%
    06:00 -11°C° 0.5 mm 9 mps 735 mmHg 84%
    07:00 -11°C° 0.1 mm 9 mps 736 mmHg 81%
    08:00 -12°C° 0.1 mm 9 mps 738 mmHg 78%
    09:00 -12°C° 0.1 mm 8 mps 740 mmHg 75%
    10:00 -12°C° 0 mm 8 mps 741 mmHg 74%
    11:00 -12°C° 0 mm 8 mps 742 mmHg 74%
    12:00 -12°C° 0 mm 8 mps 744 mmHg 74%
    13:00 -12°C° 0 mm 7 mps 744 mmHg 76%
    14:00 -12°C° 0 mm 7 mps 745 mmHg 79%
    15:00 -12°C° 0 mm 7 mps 746 mmHg 81%
    16:00 -11°C° 0 mm 6 mps 747 mmHg 82%
    17:00 -12°C° 0 mm 6 mps 747 mmHg 83%
    18:00 -12°C° 0 mm 6 mps 748 mmHg 84%
    19:00 -13°C° 0 mm 5 mps 748 mmHg 86%
    20:00 -13°C° 0 mm 5 mps 749 mmHg 87%
    21:00 -14°C° 0 mm 4 mps 749 mmHg 89%
    22:00 -12°C° 0 mm 4 mps 749 mmHg 90%
    23:00 -12°C° 0 mm 4 mps 749 mmHg 91%

    24 November, Saturday

    Time Temperature Precipitation Wind Pressure Humidity
    00:00 -12°C° 0 mm 4 mps 750 mmHg 92%
    01:00 -11°C° 0 mm 4 mps 750 mmHg 91%
    02:00 -11°C° 0 mm 4 mps 749 mmHg 90%
    03:00 -11°C° 0 mm 5 mps 749 mmHg 89%
    04:00 -12°C° 0 mm 5 mps 749 mmHg 88%
    05:00 -12°C° 0 mm 5 mps 749 mmHg 88%
    06:00 -12°C° 0 mm 5 mps 749 mmHg 87%
    07:00 -12°C° 0 mm 5 mps 748 mmHg 87%
    08:00 -11°C° 0 mm 6 mps 748 mmHg 87%
    09:00 -11°C° 0 mm 6 mps 748 mmHg 86%
    10:00 -10°C° 0 mm 6 mps 748 mmHg 85%
    11:00 -11°C° 0 mm 7 mps 747 mmHg 84%
    12:00 -9°C° 0 mm 7 mps 747 mmHg 83%
    13:00 -9°C° 0 mm 7 mps 747 mmHg 83%
    14:00 -9°C° 0 mm 7 mps 746 mmHg 84%
    15:00 -8°C° 0 mm 7 mps 746 mmHg 85%
    16:00 -8°C° 0 mm 7 mps 746 mmHg 85%
    17:00 -8°C° 0 mm 6 mps 745 mmHg 85%
    18:00 -8°C° 0 mm 6 mps 745 mmHg 85%
    19:00 -8°C° 0 mm 6 mps 745 mmHg 85%
    20:00 -8°C° 0 mm 7 mps 744 mmHg 85%
    21:00 -7°C° 0 mm 7 mps 744 mmHg 85%
    22:00 -7°C° 0 mm 7 mps 744 mmHg 85%
    23:00 -7°C° 0 mm 7 mps 744 mmHg 84%

    25 November, Sunday

    Time Temperature Precipitation Wind Pressure Humidity
    00:00 -7°C° 0 mm 7 mps 744 mmHg 84%
    01:00 -7°C° 0 mm 7 mps 744 mmHg 84%
    02:00 -7°C° 0 mm 7 mps 744 mmHg 84%
    03:00 -7°C° 0 mm 7 mps 744 mmHg 84%
    04:00 -7°C° 0 mm 7 mps 744 mmHg 85%
    05:00 -6°C° 0 mm 6 mps 744 mmHg 85%
    06:00 -6°C° 0 mm 6 mps 744 mmHg 86%
    07:00 -6°C° 0 mm 6 mps 745 mmHg 87%
    08:00 -7°C° 0 mm 5 mps 745 mmHg 88%
    09:00 -7°C° 0 mm 5 mps 746 mmHg 89%
    10:00 -7°C° 0 mm 5 mps 746 mmHg 89%
    11:00 -6°C° 0 mm 5 mps 746 mmHg 88%
    12:00 -5°C° 0 mm 4 mps 747 mmHg 87%
    13:00 -5°C° 0 mm 4 mps 747 mmHg 89%
    14:00 -6°C° 0 mm 3 mps 747 mmHg 90%
    15:00 -7°C° 0 mm 3 mps 747 mmHg 92%
    16:00 -7°C° 0 mm 3 mps 747 mmHg 92%
    17:00 -8°C° 0 mm 3 mps 747 mmHg 93%
    18:00 -9°C° 0 mm 3 mps 748 mmHg 94%
    19:00 -8°C° 0 mm 2 mps 748 mmHg 94%
    20:00 -8°C° 0 mm 2 mps 748 mmHg 94%
    21:00 -8°C° 0 mm 2 mps 748 mmHg 95%
    22:00 -8°C° 0 mm 2 mps 748 mmHg 95%
    23:00 -8°C° 0 mm 2 mps 748 mmHg 95%
    Show more